[ ตารางข้อมูล ] [ Min-Max ] [ วันนี้4 ] [ วันนี้2 ] [ เทียบ3วัน A ] [ เทียบ4วัน B ]   

วันนี้2   [ ◀ ช่วงเก่ากว่า ] [ ช่วงที่ 192 ] [ ช่วงใหม่กว่า ▶ ] [ ล่าสุด ]    [ 3 ชั่วโมง ] [ 6 ชั่วโมง ] [ 12 ชั่วโมง ] [ 24 ชั่วโมง ]   วันนี้2

อุณภูมิตู้ Knockdown4529  ราย 6 ชั่วโมง  ที่วัดได้ ในช่วงวันเวลา 17/03/2026 (01:48) ถึง 17/03/2026 (07:48) 
ความชื้นในตู้ Knockdown4529  ราย 6 ชั่วโมง  ที่วัดได้ ในช่วงวันเวลา 17/03/2026 (01:48) ถึง 17/03/2026 (07:48) 

 
DS18B20SHTC3 
IDDate d/m/Y & Timedata1
สูง
data2
ต่ำ
data3
นอก
temp
pcb
hum
pcb
Time
 3248  17/03/2026 07:45:58  26.9  26.9  26.9  27.0  72.0  07:45 
 3247  17/03/2026 07:41:16  26.9  26.9  26.6  26.8  72.0  07:41 
 3246  17/03/2026 07:36:34  26.9  26.9  26.5  26.9  72.0  07:36 
 3245  17/03/2026 07:31:53  26.9  26.9  26.5  26.8  72.1  07:31 
 3244  17/03/2026 07:27:11  26.9  26.9  26.2  26.8  72.1  07:27 
 3243  17/03/2026 07:22:30  26.9  26.9  26.0  26.9  72.2  07:22 
 3242  17/03/2026 07:17:48  26.9  26.9  25.8  26.8  72.3  07:17 
 3241  17/03/2026 07:13:05  26.9  26.9  25.5  26.8  72.4  07:13 
 3240  17/03/2026 07:08:23  26.9  26.9  25.4  26.7  72.2  07:08 
 3239  17/03/2026 07:03:41  26.9  26.9  25.4  26.7  72.4  07:03 
 3238  17/03/2026 06:58:59  26.9  26.9  25.4  27.1  72.3  06:58 
 3237  17/03/2026 06:54:19  26.9  26.9  25.4  26.9  72.2  06:54 
 3236  17/03/2026 06:49:37  26.9  26.9  25.4  26.8  72.3  06:49 
 3235  17/03/2026 06:44:55  26.9  27.0  25.4  26.7  72.2  06:44 
 3234  17/03/2026 06:40:13  27.0  27.0  25.3  27.0  72.2  06:40 
 3233  17/03/2026 06:35:31  27.0  27.0  25.4  27.1  72.3  06:35 
 3232  17/03/2026 06:30:50  27.0  27.1  25.4  26.9  72.2  06:30 
 3231  17/03/2026 06:26:06  27.0  27.1  25.5  27.0  72.2  06:26 
 3230  17/03/2026 06:21:24  27.1  27.1  25.4  27.1  72.3  06:21 
 3229  17/03/2026 06:16:40  27.1  27.1  25.4  27.0  72.2  06:16 
 3228  17/03/2026 06:11:59  27.1  27.1  25.6  27.1  72.3  06:11 
 3227  17/03/2026 06:07:16  27.1  27.1  25.6  27.2  72.3  06:07 
 3226  17/03/2026 06:02:34  27.1  27.2  25.7  27.0  72.2  06:02 
 3225  17/03/2026 05:57:53  27.1  27.2  26.0  27.1  72.2  05:57 

Data every 5 minute.


ใช้เวลาประมวลผล 0.00329 วินาที